Binghamton, NY

4:41 AM EST on February 24, 2017 (GMT -0500)
Binghamton Regional-Link

Weather History for KBGM - October, 2012

Change the Weather History Date:

Wednesday, October 10, 2012

  Actual Average Record
Temperature  
Mean Temperature 48 °F 50 °F  
Max Temperature 56 °F 59 °F 77 °F (1961)
Min Temperature 40 °F 42 °F 26 °F (1980)
Degree Days  
Heating Degree Days 17 15  
Month to date heating degree days 121 132  
Since 1 July heating degree days 335 389  
Cooling Degree Days 0 0  
Month to date cooling degree days 1 0  
Year to date cooling degree days 548 379  
Moisture  
Dew Point 44 °F    
Average Humidity 78    
Maximum Humidity 100    
Minimum Humidity 55    
Precipitation  
Precipitation 0.09 in 0.12 in 0.79 in (1998)
Month to date precipitation 0.59 1.13  
Year to date precipitation 29.89 30.97  
Snow  
Snow 0.00 in 0.00 in 0.40 in (2000)
Month to date snowfall 0.0 0.1  
Since 1 July snowfall 0.0 0.1  
Since 1 September snowfall 0.0 0.1  
Snow Depth 0.00 in    
Sea Level Pressure  
Sea Level Pressure 29.91 in    
Wind  
Wind Speed 9 mph (SW)    
Max Wind Speed 20 mph    
Max Gust Speed 28 mph    
Visibility 8 miles    
Events Rain    
T = Trace of Precipitation, MM = Missing Value Source: NWS Daily Summary

Daily Weather History Graph

Daily Weather History Graph

Search for Another Location

Airport or City:

Trip Planner

Search our weather history database for the weather conditions in past years. The results will help you decide how hot, cold, wet, or windy it might be!

Date:

Astronomy

Oct. 10, 2012 Rise Set
Actual Time 7:11 AM EDT 6:29 PM EDT
Civil Twilight 6:43 AM EDT 6:57 PM EDT
Nautical Twilight 6:10 AM EDT 7:29 PM EDT
Astronomical Twilight 5:38 AM EDT 8:02 PM EDT
Moon 1:39 AM EDT (10/10) 3:35 PM EDT (10/10)
Length of Visible Light 12h 14m
Length of Day
11h 18m
Waning Crescent, 27% of the Moon is Illuminated
Oct 10
Waning Crescent
Oct 15
New
Oct 21
First Quarter
Oct 29
Full
Nov 6
Last Quarter

Hourly Weather History & Observations

Time (EDT) Temp. Windchill Dew Point Humidity Pressure Visibility Wind Dir Wind Speed Gust Speed Precip Events Conditions
12:29 AM 48.2 °F - 46.4 °F 93% 30.03 in 7.0 mi SSE 4.6 mph - N/A   Overcast
12:53 AM 48.0 °F - 46.0 °F 93% 30.04 in 7.0 mi Variable 4.6 mph - N/A   Overcast
1:16 AM 48.2 °F - 46.4 °F 93% 30.02 in 7.0 mi South 3.5 mph - N/A   Overcast
1:25 AM 48.2 °F - 46.4 °F 93% 30.02 in 6.0 mi Calm Calm - N/A   Overcast
1:53 AM 48.9 °F - 46.9 °F 93% 30.02 in 6.0 mi SSW 3.5 mph - 0.00 in   Overcast
2:53 AM 48.9 °F - 46.9 °F 93% 29.99 in 4.0 mi South 5.8 mph - 0.01 in   Overcast
3:53 AM 48.9 °F - 48.0 °F 97% 29.98 in 5.0 mi South 6.9 mph - 0.00 in   Overcast
4:09 AM 48.2 °F - 48.2 °F 100% 29.96 in 2.5 mi South 5.8 mph - N/A   Overcast
4:43 AM 48.2 °F - 48.2 °F 100% 29.95 in 1.2 mi South 3.5 mph - N/A   Overcast
4:53 AM 48.9 °F - 48.0 °F 97% 29.96 in 3.0 mi SSE 4.6 mph - N/A   Overcast
5:37 AM 48.2 °F - 48.2 °F 100% 29.94 in 2.5 mi SSW 4.6 mph - 0.02 in Rain Light Rain
5:53 AM 50.0 °F - 48.0 °F 93% 29.95 in 2.5 mi SSW 4.6 mph - 0.03 in Rain Light Rain
6:05 AM 50.0 °F - 48.2 °F 94% 29.94 in 4.0 mi South 5.8 mph - 0.01 in Rain Light Rain
6:20 AM 50.0 °F - 48.2 °F 94% 29.94 in 2.5 mi South 5.8 mph - 0.03 in Rain Light Rain
6:35 AM 50.0 °F - 48.2 °F 94% 29.94 in 3.0 mi South 5.8 mph - 0.04 in Rain Light Rain
6:53 AM 50.0 °F - 48.0 °F 93% 29.95 in 9.0 mi South 5.8 mph - 0.04 in   Overcast
7:53 AM 50.0 °F - 48.0 °F 93% 29.93 in 5.0 mi South 8.1 mph - N/A   Overcast
8:53 AM 50.0 °F - 48.9 °F 96% 29.92 in 5.0 mi South 6.9 mph - 0.01 in Rain Light Rain
9:26 AM 51.8 °F - 48.2 °F 88% 29.90 in 10.0 mi SSW 9.2 mph - 0.00 in   Overcast
9:53 AM 51.1 °F - 48.9 °F 92% 29.90 in 10.0 mi SSW 9.2 mph - 0.00 in   Overcast
10:35 AM 53.6 °F - 48.2 °F 82% 29.87 in 10.0 mi SSW 9.2 mph 20.7 mph N/A   Overcast
10:53 AM 53.1 °F - 48.9 °F 86% 29.88 in 10.0 mi SW 10.4 mph 17.3 mph N/A   Overcast
11:20 AM 53.6 °F - 46.4 °F 77% 29.86 in 10.0 mi WSW 17.3 mph 24.2 mph N/A   Overcast
11:35 AM 53.6 °F - 42.8 °F 67% 29.86 in 10.0 mi SW 11.5 mph 27.6 mph N/A   Mostly Cloudy
11:53 AM 55.0 °F - 44.1 °F 67% 29.86 in 10.0 mi WSW 19.6 mph 26.5 mph N/A   Scattered Clouds
12:53 PM 55.0 °F - 42.1 °F 62% 29.84 in 10.0 mi SW 13.8 mph 21.9 mph N/A   Partly Cloudy
1:53 PM 55.0 °F - 39.9 °F 57% 29.82 in 10.0 mi SW 12.7 mph 16.1 mph N/A   Mostly Cloudy
2:53 PM 53.1 °F - 39.0 °F 59% 29.81 in 10.0 mi SW 8.1 mph - N/A   Overcast
3:53 PM 53.1 °F - 39.9 °F 61% 29.80 in 10.0 mi SW 8.1 mph - N/A   Overcast
4:53 PM 52.0 °F - 42.1 °F 69% 29.81 in 10.0 mi West 6.9 mph - 0.00 in   Overcast
5:19 PM 51.8 °F - 42.8 °F 71% 29.81 in 10.0 mi West 10.4 mph 18.4 mph N/A   Overcast
5:31 PM 51.8 °F - 41.0 °F 67% 29.81 in 10.0 mi WNW 11.5 mph 19.6 mph N/A   Overcast
5:43 PM 51.8 °F - 39.2 °F 62% 29.82 in 10.0 mi NW 13.8 mph 23.0 mph N/A   Overcast
5:53 PM 50.0 °F - 39.9 °F 68% 29.85 in 10.0 mi NNW 18.4 mph 23.0 mph N/A   Overcast
6:29 PM 46.4 °F 41.5 °F 35.6 °F 66% 29.86 in 10.0 mi WNW 10.4 mph 25.3 mph N/A   Overcast
6:53 PM 45.0 °F 41.2 °F 37.9 °F 76% 29.88 in 10.0 mi WNW 6.9 mph - 0.00 in Rain Light Rain
7:53 PM 43.0 °F 38.8 °F 37.9 °F 82% 29.91 in 10.0 mi West 6.9 mph - 0.00 in   Partly Cloudy
8:53 PM 42.1 °F 37.1 °F 37.9 °F 85% 29.93 in 10.0 mi West 8.1 mph - N/A   Scattered Clouds
9:53 PM 42.1 °F 37.1 °F 37.0 °F 82% 29.94 in 10.0 mi WSW 8.1 mph - N/A   Overcast
10:53 PM 42.1 °F 36.6 °F 36.0 °F 79% 29.96 in 10.0 mi West 9.2 mph - N/A   Overcast
11:53 PM 42.1 °F 35.7 °F 36.0 °F 79% 29.96 in 10.0 mi West 11.5 mph - N/A   Overcast